QPF
0.00 0.00 0.00 0.00 0.00 0.00 0.00 0.00 0.00 0.00 0.00 0.00 0.00 0.00 0.00 0.00 0.00 0.00 0.00 0.01 0.04 0.02 0.02 0.03 0.04 0.06 0.06 0.05 0.06 0.02 0.01 0.01 0.00 0.02 0.02 0.02 0.01 0.01 0.00 0.01 0.09 0.10 0.05
0.00 0.00 0.00 0.00 0.00 0.00 0.00 0.01 0.00 0.00 0.01 0.00 0.00 0.00 0.00 0.00 0.00 0.00 0.00 0.00 0.00 0.01 0.00 0.01 0.02 0.02 0.01 0.01 0.00 0.00 0.01 0.01 0.01 0.01 0.01 0.01 0.00 0.00 0.00 0.00 0.00 0.02 0.03
0.00 0.00 0.00 0.00 0.00 0.00 0.00 0.00 0.00 0.00 0.01 0.02 0.00 0.00 0.00 0.00 0.00 0.00 0.00 0.00 0.00 0.00 0.01 0.01 0.00 0.01 0.01 0.00 0.00 0.00 0.00 0.00 0.00 0.00 0.00 0.00 0.00 0.00 0.00 0.00 0.00 0.00 0.00
0.00 0.00 0.00 0.00 0.00 0.00 0.00 0.00 0.00 0.01 0.01 0.02 0.01 0.00 0.00 0.00 0.00 0.00 0.00 0.00 0.00 0.00 0.00 0.00 0.00 0.00 0.00 0.00 0.00 0.00 0.01 0.01 0.00 0.00 0.00 0.00 0.00 0.00 0.00 0.00 0.00 0.00 0.00
0.00 0.00 0.00 0.00 0.00 0.00 0.00 0.00 0.00 0.02 0.01 0.00 0.04 0.01 0.00 0.00 0.00 0.00 0.00 0.00 0.00 0.00 0.00 0.00 0.00 0.00 0.00 0.00 0.00 0.00 0.00 0.00 0.00 0.00 0.00 0.00 0.00 0.00 0.00 0.01 0.01 0.01 0.01
0.00 0.00 0.00 0.00 0.00 0.00 0.00 0.00 0.01 0.01 0.00 0.00 0.00 0.00 0.00 0.00 0.00 0.00 0.00 0.00 0.00 0.00 0.00 0.00 0.00 0.00 0.00 0.00 0.00 0.00 0.00 0.00 0.00 0.00 0.00 0.00 0.01 0.01 0.01 0.02 0.02 0.01 0.02
0.00 0.00 0.00 0.00 0.00 0.00 0.00 0.00 0.00 0.05 0.05 0.01 0.00 0.00 0.00 0.00 0.00 0.00 0.00 0.00 0.00 0.00 0.00 0.00 0.00 0.00 0.00 0.00 0.00 0.00 0.00 0.00 0.00 0.00 0.00 0.00 0.01 0.02 0.01 0.03 0.02 0.01 0.01
0.00 0.01 0.00 0.00 0.00 0.05 0.00 0.00 0.00 0.05 0.04 0.01 0.00 0.00 0.00 0.00 0.00 0.00 0.00 0.00 0.00 0.00 0.00 0.00 0.00 0.00 0.00 0.00 0.00 0.00 0.00 0.00 0.00 0.00 0.00 0.00 0.00 0.01 0.01 0.02 0.03 0.01 0.00
0.00 0.05 0.01 0.00 0.00 0.03 0.00 0.00 0.00 0.00 0.01 0.02 0.00 0.00 0.00 0.00 0.00 0.00 0.00 0.00 0.00 0.00 0.00 0.00 0.00 0.00 0.00 0.00 0.00 0.00 0.00 0.00 0.00 0.00 0.00 0.00 0.00 0.00 0.01 0.02 0.01 0.00 0.00
0.00 0.00 0.03 0.04 0.01 0.00 0.00 0.00 0.00 0.00 0.00 0.01 0.01 0.01 0.01 0.00 0.00 0.00 0.00 0.00 0.00 0.00 0.00 0.00 0.00 0.00 0.00 0.00 0.00 0.00 0.00 0.00 0.00 0.00 0.00 0.00 0.00 0.00 0.00 0.01 0.00 0.00 0.00
0.00 0.00 0.00 0.01 0.00 0.01 0.00 0.00 0.00 0.00 0.00 0.00 0.03 0.07 0.01 0.00 0.00 0.00 0.00 0.00 0.00 0.00 0.00 0.00 0.00 0.00 0.00 0.00 0.00 0.00 0.00 0.00 0.00 0.00 0.00 0.00 0.00 0.00 0.00 0.00 0.00 0.00 0.00
0.00 0.00 0.00 0.00 0.00 0.00 0.00 0.00 0.00 0.00 0.00 0.00 0.01 0.10 0.05 0.00 0.00 0.00 0.00 0.00 0.00 0.00 0.00 0.00 0.00 0.00 0.00 0.00 0.00 0.00 0.00 0.00 0.00 0.00 0.00 0.00 0.00 0.00 0.00 0.00 0.00 0.00 0.00
0.00 0.00 0.00 0.00 0.00 0.00 0.00 0.00 0.00 0.00 0.00 0.00 0.00 0.00 0.05 0.02 0.00 0.00 0.00 0.00 0.00 0.00 0.00 0.00 0.00 0.00 0.00 0.00 0.00 0.00 0.00 0.00 0.00 0.00 0.00 0.00 0.00 0.00 0.00 0.00 0.00 0.00 0.00
0.00 0.00 0.00 0.00 0.00 0.00 0.00 0.00 0.00 0.00 0.00 0.00 0.00 0.00 0.05 0.01 0.00 0.00 0.00 0.00 0.00 0.00 0.00 0.00 0.00 0.00 0.00 0.00 0.00 0.00 0.00 0.00 0.00 0.00 0.00 0.00 0.00 0.00 0.00 0.00 0.00 0.00 0.00
0.00 0.00 0.00 0.00 0.00 0.00 0.00 0.00 0.00 0.00 0.00 0.00 0.00 0.00 0.01 0.01 0.00 0.00 0.00 0.00 0.00 0.00 0.00 0.00 0.00 0.00 0.00 0.00 0.00 0.00 0.00 0.00 0.00 0.00 0.00 0.00 0.00 0.00 0.00 0.00 0.00 0.00 0.00
0.00 0.00 0.00 0.00 0.00 0.00 0.00 0.00 0.00 0.00 0.00 0.00 0.00 0.01 0.01 0.01 0.00 0.00 0.00 0.00 0.00 0.00 0.00 0.00 0.00 0.00 0.00 0.00 0.00 0.00 0.00 0.00 0.00 0.00 0.00 0.00 0.00 0.00 0.00 0.00 0.00 0.00 0.00
0.00 0.00 0.00 0.00 0.00 0.00 0.00 0.00 0.00 0.00 0.00 0.00 0.00 0.00 0.00 0.00 0.00 0.00 0.00 0.00 0.00 0.00 0.00 0.00 0.00 0.00 0.00 0.00 0.00 0.00 0.00 0.00 0.00 0.00 0.00 0.00 0.00 0.00 0.00 0.00 0.00 0.00 0.00
0.00 0.00 0.00 0.00 0.00 0.00 0.00 0.00 0.00 0.00 0.01 0.00 0.04 0.03 0.00 0.00 0.00 0.00 0.00 0.00 0.00 0.00 0.00 0.00 0.00 0.00 0.00 0.00 0.00 0.00 0.00 0.00 0.00 0.00 0.00 0.00 0.00 0.00 0.00 0.00 0.00 0.00 0.00
0.00 0.00 0.00 0.00 0.00 0.00 0.00 0.02 0.02 0.00 0.00 0.00 0.00 0.00 0.00 0.00 0.00 0.00 0.00 0.00 0.00 0.00 0.00 0.00 0.00 0.00 0.00 0.00 0.00 0.00 0.00 0.00 0.00 0.00 0.00 0.00 0.00 0.00 0.00 0.00 0.00 0.00 0.00
0.00 0.00 0.00 0.00 0.00 0.00 0.00 0.04 0.05 0.00 0.00 0.00 0.00 0.00 0.00 0.00 0.00 0.00 0.00 0.00 0.00 0.00 0.00 0.00 0.00 0.00 0.00 0.00 0.00 0.00 0.00 0.00 0.00 0.00 0.00 0.00 0.00 0.00 0.00 0.00 0.00 0.00 0.00
0.01 0.07 0.00 0.00 0.00 0.00 0.00 0.00 0.00 0.00 0.00 0.00 0.00 0.00 0.02 0.01 0.00 0.00 0.00 0.00 0.00 0.00 0.00 0.00 0.00 0.00 0.00 0.00 0.00 0.00 0.00 0.00 0.00 0.00 0.00 0.00 0.00 0.00 0.00 0.00 0.00 0.00 0.00
0.31 0.02 0.00 0.00 0.00 0.00 0.00 0.01 0.00 0.00 0.00 0.00 0.01 0.14 0.07 0.01 0.00 0.00 0.00 0.00 0.00 0.00 0.00 0.00 0.00 0.00 0.00 0.00 0.00 0.00 0.00 0.00 0.00 0.00 0.00 0.00 0.00 0.00 0.00 0.00 0.00 0.00 0.00
0.25 0.04 0.05 0.17 0.07 0.00 0.00 0.00 0.00 0.00 0.00 0.00 0.03 0.12 0.06 0.00 0.00 0.00 0.00 0.00 0.00 0.00 0.00 0.00 0.00 0.00 0.00 0.00 0.00 0.00 0.00 0.00 0.00 0.00 0.00 0.00 0.00 0.00 0.00 0.00 0.00 0.00 0.00
0.13 0.17 0.30 0.28 0.07 0.01 0.00 0.01 0.02 0.00 0.00 0.00 0.00 0.02 0.03 0.01 0.00 0.00 0.00 0.00 0.00 0.00 0.00 0.00 0.00 0.00 0.00 0.00 0.00 0.00 0.00 0.00 0.00 0.00 0.00 0.00 0.00 0.00 0.00 0.00 0.00 0.00 0.00
0.07 0.14 0.20 0.13 0.00 0.01 0.01 0.00 0.01 0.00 0.00 0.00 0.01 0.06 0.03 0.01 0.00 0.00 0.00 0.00 0.00 0.00 0.00 0.00 0.00 0.00 0.00 0.00 0.00 0.00 0.00 0.00 0.00 0.00 0.00 0.00 0.00 0.00 0.00 0.00 0.00 0.00 0.00
0.05 0.02 0.06 0.04 0.00 0.00 0.00 0.00 0.00 0.00 0.00 0.01 0.04 0.10 0.07 0.02 0.00 0.00 0.00 0.00 0.00 0.00 0.00 0.00 0.00 0.00 0.00 0.00 0.00 0.00 0.00 0.00 0.00 0.00 0.00 0.00 0.00 0.00 0.00 0.00 0.00 0.00 0.00
MSLP
1016.63 1016.53 1016.32 1016.16 1016.00 1015.94 1015.97 1016.05 1016.11 1016.34 1016.63 1016.96 1017.26 1017.34 1017.43 1017.50 1017.51 1017.35 1017.19 1017.09 1017.07 1017.11 1017.00 1017.04 1017.01 1017.09 1017.06 1017.10 1017.01 1017.07 1016.95 1016.90 1016.84 1016.80 1016.68 1016.52 1016.39 1016.08 1016.10 1016.13 1016.43 1016.84 1017.07
1016.82 1016.78 1016.59 1016.50 1016.35 1016.37 1016.24 1016.29 1016.53 1016.58 1017.10 1017.30 1017.53 1017.73 1017.94 1017.97 1018.15 1017.94 1017.83 1017.75 1017.62 1017.61 1017.56 1017.52 1017.45 1017.43 1017.46 1017.60 1017.65 1017.55 1017.43 1017.37 1017.36 1017.34 1017.16 1017.04 1016.84 1016.73 1016.61 1016.56 1016.53 1016.67 1016.85
1017.08 1016.91 1016.86 1016.77 1016.58 1016.50 1016.68 1016.61 1016.87 1016.90 1017.41 1017.79 1018.21 1018.08 1018.25 1018.31 1018.54 1018.62 1018.52 1018.58 1018.50 1018.22 1018.27 1018.13 1018.13 1018.14 1018.11 1018.17 1018.24 1018.16 1018.07 1017.99 1017.83 1017.77 1017.73 1017.56 1017.46 1017.29 1017.05 1016.91 1016.80 1016.78 1016.65
1017.17 1017.12 1017.09 1017.01 1016.87 1016.74 1016.84 1017.13 1017.27 1017.70 1018.02 1018.32 1018.50 1018.77 1018.72 1018.80 1018.79 1019.13 1019.23 1019.28 1019.17 1019.16 1018.97 1018.78 1018.67 1018.65 1018.66 1018.74 1018.68 1018.67 1018.70 1018.56 1018.52 1018.33 1018.17 1017.92 1017.85 1017.73 1017.54 1017.09 1016.72 1016.54 1016.55
1017.16 1017.14 1017.27 1017.21 1017.11 1017.12 1017.13 1017.59 1017.79 1017.91 1018.38 1018.71 1018.83 1019.09 1019.28 1019.45 1019.27 1019.45 1019.71 1019.82 1019.91 1019.97 1019.97 1019.59 1019.34 1019.19 1019.16 1019.15 1019.19 1019.17 1019.20 1019.24 1019.11 1018.94 1018.63 1018.29 1018.14 1017.98 1017.66 1017.26 1016.89 1016.58 1016.28
1017.18 1017.18 1017.30 1017.35 1017.22 1017.47 1017.59 1017.73 1018.14 1018.41 1018.65 1018.85 1019.15 1019.54 1019.65 1019.82 1019.75 1020.05 1020.22 1020.37 1020.67 1020.51 1020.50 1020.48 1020.43 1020.19 1019.82 1019.76 1019.65 1019.77 1019.78 1019.74 1019.69 1019.57 1019.39 1019.07 1018.70 1018.45 1018.21 1017.81 1017.45 1017.04 1016.64
1017.10 1017.13 1017.22 1017.25 1017.30 1017.53 1017.89 1018.00 1018.51 1018.71 1019.15 1019.16 1019.48 1020.01 1020.30 1020.44 1020.56 1020.89 1020.85 1021.01 1021.32 1021.18 1021.05 1021.23 1021.11 1021.01 1020.77 1020.37 1020.28 1020.32 1020.26 1020.23 1020.15 1020.02 1019.93 1019.74 1019.36 1019.08 1018.86 1018.46 1018.12 1017.62 1017.14
1017.01 1017.12 1017.23 1017.44 1017.38 1017.77 1018.07 1018.37 1018.48 1019.09 1019.28 1019.30 1019.84 1020.15 1020.78 1021.17 1021.28 1021.64 1021.69 1021.83 1021.99 1021.71 1021.71 1021.78 1021.66 1021.64 1021.52 1021.24 1020.97 1020.93 1020.81 1020.69 1020.56 1020.43 1020.32 1020.22 1019.95 1019.75 1019.61 1019.33 1019.00 1018.45 1017.95
1016.89 1017.12 1017.19 1017.34 1017.51 1017.82 1018.11 1018.43 1018.58 1018.82 1019.34 1019.40 1019.41 1019.54 1020.45 1021.01 1021.48 1022.08 1022.34 1022.56 1022.65 1022.63 1022.47 1022.25 1022.22 1022.13 1022.13 1022.01 1021.82 1021.61 1021.44 1021.21 1021.03 1020.96 1020.77 1020.64 1020.58 1020.43 1020.29 1020.01 1019.69 1019.26 1018.75
1016.77 1016.86 1017.07 1017.32 1017.41 1017.65 1018.02 1018.29 1018.55 1018.72 1019.07 1019.42 1019.52 1019.47 1019.42 1019.91 1021.04 1022.41 1022.88 1023.13 1023.27 1023.31 1023.12 1022.72 1022.81 1022.50 1022.56 1022.54 1022.18 1022.05 1022.03 1021.92 1021.68 1021.50 1021.32 1021.17 1020.89 1020.85 1020.73 1020.63 1020.34 1019.99 1019.64
1016.77 1016.82 1016.95 1017.19 1017.40 1017.58 1017.90 1018.15 1018.44 1018.62 1018.77 1019.04 1019.08 1019.38 1019.56 1019.85 1020.14 1021.03 1022.63 1023.39 1023.77 1023.77 1023.69 1023.47 1023.39 1023.09 1022.80 1022.88 1022.81 1022.53 1022.54 1022.59 1022.44 1022.24 1022.05 1021.78 1021.57 1021.37 1021.20 1021.10 1020.96 1020.75 1020.52
1016.79 1016.77 1016.81 1017.02 1017.14 1017.45 1017.70 1017.84 1018.15 1018.42 1018.61 1018.79 1018.93 1019.11 1019.06 1019.40 1019.73 1020.27 1021.71 1023.03 1023.88 1024.24 1024.16 1024.02 1023.82 1023.85 1023.48 1023.12 1022.81 1022.81 1022.94 1023.09 1023.14 1023.10 1022.91 1022.72 1022.51 1022.24 1021.89 1021.70 1021.59 1021.46 1021.34
1016.56 1016.56 1016.69 1016.90 1017.06 1017.11 1017.37 1017.51 1017.87 1018.15 1018.39 1018.59 1018.68 1018.71 1018.69 1018.77 1018.74 1019.57 1020.71 1022.33 1023.45 1024.10 1024.26 1024.35 1024.22 1024.07 1023.99 1023.68 1023.40 1023.27 1023.32 1023.54 1023.72 1023.68 1023.60 1023.57 1023.43 1023.28 1023.09 1022.80 1022.54 1022.33 1022.17
1015.97 1016.00 1016.22 1016.40 1016.65 1016.79 1017.06 1017.26 1017.65 1017.85 1018.08 1018.20 1018.30 1018.38 1018.42 1018.31 1018.45 1018.85 1019.78 1020.99 1022.87 1023.63 1023.85 1024.05 1024.11 1024.12 1024.05 1024.12 1023.96 1023.66 1023.76 1023.88 1024.00 1024.06 1024.05 1024.04 1024.05 1024.03 1023.91 1023.73 1023.56 1023.45 1023.31
1015.45 1015.61 1015.77 1016.21 1016.34 1016.52 1016.75 1017.18 1017.44 1017.61 1017.80 1017.91 1017.99 1018.01 1018.15 1018.07 1018.23 1018.54 1019.08 1019.69 1021.07 1022.91 1023.59 1023.83 1023.91 1023.79 1024.20 1024.12 1024.10 1024.21 1024.20 1024.16 1024.26 1024.32 1024.40 1024.48 1024.45 1024.46 1024.48 1024.44 1024.37 1024.35 1024.26
1015.11 1015.32 1015.53 1015.80 1016.11 1016.42 1016.65 1016.94 1017.16 1017.34 1017.51 1017.58 1017.68 1017.79 1017.79 1017.87 1018.00 1018.33 1018.76 1019.33 1019.91 1021.03 1022.59 1022.92 1023.25 1023.33 1023.87 1024.22 1024.10 1024.49 1024.45 1024.38 1024.42 1024.50 1024.68 1024.85 1024.96 1025.01 1025.03 1024.90 1024.87 1024.90 1024.87
1014.51 1014.79 1015.03 1015.33 1015.69 1015.98 1016.26 1016.60 1016.78 1016.99 1017.19 1017.22 1017.33 1017.47 1017.54 1017.60 1017.80 1018.15 1018.45 1019.01 1019.59 1020.20 1021.47 1022.67 1022.91 1023.24 1023.84 1024.22 1024.25 1024.63 1024.72 1024.70 1024.65 1024.70 1024.97 1025.15 1025.27 1025.32 1025.33 1025.27 1025.30 1025.42 1025.45
1013.90 1014.15 1014.43 1014.79 1015.17 1015.57 1015.88 1016.11 1016.37 1016.54 1016.78 1016.83 1016.78 1017.08 1017.18 1017.37 1017.71 1018.01 1018.21 1018.48 1019.09 1019.69 1020.78 1022.04 1022.75 1023.14 1023.66 1023.87 1024.20 1024.63 1024.67 1024.81 1024.99 1024.91 1025.10 1025.30 1025.47 1025.42 1025.49 1025.59 1025.79 1025.92 1025.85
1013.18 1013.51 1013.87 1014.23 1014.53 1014.94 1015.33 1015.55 1015.74 1016.00 1016.22 1016.33 1016.27 1016.58 1016.77 1017.11 1017.46 1017.73 1017.93 1018.21 1018.68 1019.39 1020.06 1021.10 1022.31 1022.69 1023.18 1023.78 1024.40 1024.62 1024.73 1024.94 1025.00 1025.00 1025.07 1025.27 1025.43 1025.57 1025.72 1025.80 1025.99 1026.03 1025.99
1012.44 1012.79 1013.16 1013.46 1013.80 1014.15 1014.54 1014.87 1015.21 1015.48 1015.69 1015.87 1016.03 1016.08 1016.39 1016.71 1016.94 1017.30 1017.69 1017.84 1018.32 1019.22 1019.92 1020.74 1021.62 1022.41 1022.83 1023.49 1024.01 1024.60 1024.88 1024.88 1025.06 1024.91 1024.92 1025.09 1025.34 1025.58 1025.79 1025.89 1026.14 1026.19 1026.20
1011.87 1012.11 1012.58 1012.85 1013.24 1013.67 1013.91 1014.30 1014.64 1014.93 1015.23 1015.42 1015.56 1015.68 1015.86 1016.28 1016.51 1016.78 1017.20 1017.71 1018.16 1018.89 1019.64 1020.39 1021.31 1022.01 1022.60 1023.04 1023.35 1023.89 1024.45 1024.72 1025.00 1025.12 1025.13 1025.13 1025.42 1025.70 1025.76 1025.77 1026.04 1026.07 1026.25
1010.79 1011.43 1011.98 1012.24 1012.69 1012.92 1013.12 1013.58 1013.98 1014.40 1014.60 1014.94 1015.35 1015.47 1015.64 1015.95 1016.33 1016.51 1016.82 1017.33 1017.43 1018.16 1019.16 1019.84 1020.69 1021.13 1021.48 1021.88 1022.61 1023.29 1024.04 1024.76 1025.07 1024.29 1024.79 1024.92 1025.19 1025.59 1025.51 1025.60 1025.61 1025.70 1025.91
1011.01 1011.25 1011.51 1011.58 1011.82 1012.21 1012.52 1012.74 1013.25 1013.77 1014.13 1014.34 1014.78 1015.31 1015.66 1015.65 1016.14 1016.48 1016.71 1017.14 1017.49 1017.75 1017.78 1018.29 1019.24 1019.83 1020.42 1020.65 1021.49 1022.60 1023.13 1023.56 1023.76 1023.77 1024.24 1024.76 1025.00 1024.89 1024.69 1024.85 1025.01 1025.21 1025.34
1010.34 1010.65 1010.96 1011.00 1011.15 1011.27 1011.76 1012.26 1012.58 1013.13 1013.55 1013.84 1014.27 1014.68 1015.24 1015.53 1015.96 1016.32 1016.79 1017.17 1017.41 1017.63 1017.86 1018.13 1018.08 1018.34 1018.69 1019.41 1019.96 1020.60 1021.65 1022.63 1023.19 1023.45 1023.71 1024.47 1024.44 1024.30 1024.06 1024.11 1024.13 1024.30 1024.49
1009.86 1010.25 1010.57 1010.80 1010.99 1010.98 1011.29 1011.65 1012.28 1012.90 1013.31 1013.55 1013.91 1014.31 1014.84 1015.27 1015.78 1016.16 1016.62 1017.24 1017.40 1017.65 1017.64 1017.66 1017.76 1017.93 1018.20 1018.56 1019.20 1020.49 1021.69 1022.68 1023.14 1023.20 1023.34 1023.67 1023.88 1023.93 1023.81 1023.48 1023.33 1023.42 1023.68
1009.31 1009.91 1010.22 1010.51 1010.44 1010.71 1010.81 1011.29 1011.85 1012.50 1013.08 1013.58 1013.81 1014.26 1014.57 1014.89 1015.42 1015.92 1016.36 1017.01 1017.32 1017.48 1017.67 1017.84 1017.98 1018.17 1018.35 1018.81 1019.02 1019.09 1020.25 1021.54 1022.35 1022.86 1022.44 1023.07 1023.34 1023.50 1023.86 1023.21 1023.01 1023.04 1023.16
Thickness
5788 5790 5791 5793 5795 5795 5795 5795 5795 5793 5789 5785 5780 5777 5775 5774 5772 5771 5769 5769 5766 5763 5762 5759 5756 5753 5752 5750 5749 5747 5746 5746 5745 5744 5744 5744 5743 5745 5743 5743 5742 5739 5738
5786 5788 5789 5790 5792 5793 5793 5794 5792 5792 5787 5784 5780 5777 5774 5772 5768 5768 5767 5766 5764 5762 5760 5757 5755 5753 5752 5748 5747 5747 5746 5746 5745 5744 5744 5743 5743 5742 5742 5741 5742 5742 5741
5784 5786 5787 5789 5791 5792 5792 5791 5790 5790 5786 5782 5778 5776 5773 5771 5767 5764 5764 5762 5761 5760 5757 5755 5753 5750 5749 5746 5745 5745 5745 5743 5744 5744 5744 5744 5743 5743 5744 5744 5746 5746 5747
5783 5784 5786 5787 5789 5790 5791 5789 5788 5785 5783 5781 5778 5773 5771 5769 5767 5763 5761 5759 5758 5756 5754 5753 5751 5748 5746 5744 5744 5743 5742 5741 5741 5742 5744 5745 5745 5744 5745 5749 5751 5753 5753
5782 5784 5784 5785 5786 5787 5788 5787 5785 5784 5780 5778 5776 5772 5769 5766 5765 5763 5759 5757 5754 5752 5750 5749 5748 5745 5744 5744 5743 5742 5741 5740 5741 5741 5743 5746 5747 5748 5749 5751 5754 5755 5756
5782 5784 5783 5784 5785 5785 5784 5785 5782 5781 5779 5777 5775 5770 5768 5764 5762 5760 5758 5754 5751 5750 5748 5745 5743 5742 5742 5741 5742 5741 5739 5739 5739 5739 5741 5743 5746 5747 5749 5751 5752 5753 5755
5782 5784 5782 5783 5784 5784 5781 5782 5779 5777 5773 5776 5771 5766 5763 5761 5758 5756 5755 5751 5747 5746 5744 5742 5740 5740 5739 5739 5739 5739 5738 5738 5738 5738 5738 5739 5742 5744 5745 5747 5749 5752 5754
5780 5780 5780 5780 5783 5780 5779 5778 5778 5773 5772 5774 5766 5763 5752 5753 5754 5751 5748 5747 5744 5744 5741 5739 5737 5736 5736 5737 5737 5736 5736 5736 5736 5736 5737 5737 5738 5739 5740 5741 5743 5745 5748
5779 5779 5779 5778 5778 5778 5777 5777 5776 5775 5769 5771 5773 5768 5754 5747 5748 5749 5744 5742 5741 5739 5737 5738 5736 5734 5733 5732 5733 5733 5732 5733 5733 5733 5734 5734 5734 5735 5735 5736 5737 5739 5742
5777 5777 5777 5776 5776 5775 5775 5777 5777 5775 5773 5767 5770 5772 5773 5766 5748 5739 5742 5739 5738 5736 5734 5736 5735 5734 5732 5730 5731 5731 5730 5729 5729 5730 5731 5732 5733 5732 5732 5732 5732 5734 5735
5777 5775 5775 5774 5775 5774 5775 5776 5775 5775 5775 5772 5771 5769 5769 5766 5763 5753 5738 5735 5734 5733 5731 5731 5731 5733 5734 5731 5730 5729 5727 5725 5725 5726 5727 5728 5729 5729 5728 5728 5728 5728 5728
5776 5775 5774 5775 5774 5773 5773 5775 5775 5775 5774 5774 5774 5771 5771 5767 5763 5760 5747 5737 5730 5728 5728 5727 5728 5728 5730 5731 5731 5729 5726 5723 5721 5720 5721 5722 5722 5724 5725 5724 5723 5722 5721
5776 5776 5775 5773 5774 5773 5773 5773 5774 5774 5774 5774 5774 5774 5775 5775 5775 5766 5756 5741 5733 5730 5728 5726 5726 5727 5726 5727 5727 5727 5725 5722 5719 5718 5718 5717 5717 5717 5717 5717 5718 5717 5715
5780 5781 5778 5775 5774 5774 5772 5773 5773 5774 5774 5775 5775 5776 5775 5777 5777 5771 5762 5751 5735 5731 5730 5728 5728 5729 5728 5726 5724 5724 5723 5721 5720 5717 5717 5715 5714 5712 5712 5712 5711 5709 5708
5783 5782 5780 5776 5775 5773 5772 5771 5770 5770 5772 5774 5774 5775 5776 5777 5778 5775 5769 5765 5750 5732 5728 5730 5729 5732 5729 5727 5726 5724 5723 5721 5719 5718 5716 5715 5712 5711 5709 5706 5704 5702 5701
5784 5782 5781 5778 5775 5772 5771 5769 5768 5768 5768 5771 5773 5773 5775 5776 5778 5775 5771 5766 5762 5750 5736 5737 5736 5736 5732 5727 5726 5724 5723 5721 5721 5718 5715 5713 5710 5707 5705 5704 5701 5698 5695
5786 5783 5781 5779 5776 5773 5771 5768 5767 5767 5766 5768 5771 5772 5774 5776 5775 5774 5773 5768 5763 5758 5745 5737 5737 5736 5733 5729 5726 5724 5722 5722 5721 5718 5714 5712 5708 5706 5703 5701 5697 5694 5691
5788 5785 5782 5779 5776 5773 5771 5768 5767 5767 5765 5766 5769 5770 5773 5775 5772 5772 5771 5770 5766 5761 5751 5739 5737 5735 5733 5732 5731 5726 5723 5721 5720 5717 5714 5712 5709 5707 5704 5700 5694 5690 5687
5790 5786 5782 5779 5777 5774 5771 5770 5770 5768 5766 5766 5768 5767 5771 5773 5771 5770 5771 5770 5767 5763 5757 5747 5738 5738 5736 5732 5728 5726 5725 5722 5720 5717 5715 5713 5710 5707 5703 5698 5693 5689 5687
5791 5787 5784 5781 5778 5776 5773 5771 5768 5767 5766 5766 5767 5769 5770 5772 5772 5771 5770 5771 5767 5761 5755 5749 5743 5739 5738 5733 5730 5725 5723 5723 5720 5719 5717 5714 5711 5707 5702 5697 5692 5688 5685
5789 5787 5783 5780 5776 5774 5773 5769 5767 5765 5764 5764 5765 5768 5770 5770 5773 5773 5770 5768 5766 5760 5755 5749 5743 5738 5736 5734 5733 5729 5726 5723 5721 5719 5719 5716 5712 5707 5702 5698 5692 5687 5683
5783 5783 5780 5777 5773 5772 5772 5770 5767 5764 5764 5762 5760 5763 5764 5764 5768 5771 5770 5768 5769 5763 5755 5750 5744 5744 5743 5741 5736 5732 5726 5720 5716 5724 5719 5716 5712 5708 5704 5699 5694 5689 5684
5784 5779 5777 5775 5773 5770 5769 5769 5767 5764 5761 5760 5757 5756 5756 5760 5761 5765 5766 5766 5765 5766 5767 5762 5753 5750 5746 5749 5742 5733 5730 5727 5724 5725 5720 5715 5714 5711 5709 5704 5698 5693 5688
5784 5779 5775 5773 5772 5771 5769 5766 5766 5763 5759 5758 5756 5757 5754 5753 5755 5758 5760 5760 5759 5761 5760 5760 5762 5761 5759 5755 5752 5749 5741 5733 5728 5725 5723 5715 5714 5713 5713 5710 5705 5699 5693
5783 5777 5773 5769 5767 5768 5768 5766 5762 5758 5755 5754 5753 5753 5752 5749 5750 5754 5754 5752 5753 5754 5756 5757 5759 5759 5759 5758 5755 5747 5737 5728 5724 5723 5722 5719 5717 5715 5714 5714 5711 5705 5698
5784 5776 5771 5768 5768 5765 5766 5763 5761 5757 5752 5749 5749 5748 5748 5747 5745 5749 5750 5748 5747 5751 5752 5752 5753 5753 5754 5752 5753 5752 5746 5733 5725 5722 5727 5721 5717 5716 5711 5713 5711 5706 5700